Year,Month,Day,Hour,Minute,Value (Times are PST for temperature in C)
2011,09,20,00,00,9.90
2011,09,20,00,01,9.90
2011,09,20,00,02,9.90
2011,09,20,00,03,9.90
2011,09,20,00,04,9.90
2011,09,20,00,05,9.90
2011,09,20,00,06,9.90
2011,09,20,00,07,9.80
2011,09,20,00,08,9.80
2011,09,20,00,09,9.80
2011,09,20,00,10,9.80
2011,09,20,00,11,9.80
2011,09,20,00,12,9.80
2011,09,20,00,13,9.70
2011,09,20,00,14,9.70
2011,09,20,00,15,9.70
2011,09,20,00,16,9.70
2011,09,20,00,17,9.70
2011,09,20,00,18,9.70
2011,09,20,00,19,9.70
2011,09,20,00,20,9.60
2011,09,20,00,21,9.60
2011,09,20,00,22,9.60
2011,09,20,00,23,9.60
2011,09,20,00,24,9.60
2011,09,20,00,25,9.60
2011,09,20,00,26,9.60
2011,09,20,00,27,9.60
2011,09,20,00,28,9.60
2011,09,20,00,29,9.50
2011,09,20,00,30,9.50
2011,09,20,00,31,9.50
2011,09,20,00,32,9.50
2011,09,20,00,33,9.50
2011,09,20,00,34,9.50
2011,09,20,00,35,9.40
2011,09,20,00,36,9.40
2011,09,20,00,37,9.40
2011,09,20,00,38,9.40
2011,09,20,00,39,9.40
2011,09,20,00,40,9.30
2011,09,20,00,41,9.30
2011,09,20,00,42,9.30
2011,09,20,00,43,9.30
2011,09,20,00,44,9.30
2011,09,20,00,45,9.20
2011,09,20,00,46,9.20
2011,09,20,00,47,9.20
2011,09,20,00,48,9.20
2011,09,20,00,49,9.20
2011,09,20,00,50,9.20
2011,09,20,00,51,9.20
2011,09,20,00,52,9.20
2011,09,20,00,53,9.20
2011,09,20,00,54,9.20
2011,09,20,00,55,9.10
2011,09,20,00,56,9.10
2011,09,20,00,57,9.10
2011,09,20,00,58,9.10
2011,09,20,00,59,9.10
2011,09,20,01,00,9.10
2011,09,20,01,01,9.10
2011,09,20,01,02,9.10
2011,09,20,01,03,9.10
2011,09,20,01,04,9.10
2011,09,20,01,05,9.00
2011,09,20,01,06,9.00
2011,09,20,01,07,9.00
2011,09,20,01,08,9.00
2011,09,20,01,09,8.90
2011,09,20,01,10,8.90
2011,09,20,01,11,8.90
2011,09,20,01,12,8.90
2011,09,20,01,13,8.90
2011,09,20,01,14,8.90
2011,09,20,01,15,8.90
2011,09,20,01,16,8.90
2011,09,20,01,17,8.90
2011,09,20,01,18,8.90
2011,09,20,01,19,8.90
2011,09,20,01,20,8.80
2011,09,20,01,21,8.80
2011,09,20,01,22,8.80
2011,09,20,01,23,8.80
2011,09,20,01,24,8.80
2011,09,20,01,25,8.80
2011,09,20,01,26,8.80
2011,09,20,01,27,8.80
2011,09,20,01,28,8.80
2011,09,20,01,29,8.80
2011,09,20,01,30,8.80
2011,09,20,01,31,8.80
2011,09,20,01,32,8.80
2011,09,20,01,33,8.70
2011,09,20,01,34,8.70
2011,09,20,01,35,8.70
2011,09,20,01,36,8.70
2011,09,20,01,37,8.70
2011,09,20,01,38,8.70
2011,09,20,01,39,8.70
2011,09,20,01,40,8.70
2011,09,20,01,41,8.70
2011,09,20,01,42,8.70
2011,09,20,01,43,8.70
2011,09,20,01,44,8.60
2011,09,20,01,45,8.60
2011,09,20,01,46,8.60
2011,09,20,01,47,8.60
2011,09,20,01,48,8.60
2011,09,20,01,49,8.60
2011,09,20,01,50,8.60
2011,09,20,01,51,8.60
2011,09,20,01,52,8.60
2011,09,20,01,53,8.50
2011,09,20,01,54,8.50
2011,09,20,01,55,8.50
2011,09,20,01,56,8.40
2011,09,20,01,57,8.40
2011,09,20,01,58,8.40
2011,09,20,01,59,8.40
2011,09,20,02,00,8.40
2011,09,20,02,01,8.40
2011,09,20,02,02,8.30
2011,09,20,02,03,8.30
2011,09,20,02,04,8.30
2011,09,20,02,05,8.30
2011,09,20,02,06,8.30
2011,09,20,02,07,8.30
2011,09,20,02,08,8.30
2011,09,20,02,09,8.30
2011,09,20,02,10,8.30
2011,09,20,02,11,8.30
2011,09,20,02,12,8.20
2011,09,20,02,13,8.20
2011,09,20,02,14,8.20
2011,09,20,02,15,8.20
2011,09,20,02,16,8.20
2011,09,20,02,17,8.20
2011,09,20,02,18,8.20
2011,09,20,02,19,8.20
2011,09,20,02,20,8.20
2011,09,20,02,21,8.10
2011,09,20,02,22,8.10
2011,09,20,02,23,8.10
2011,09,20,02,24,8.10
2011,09,20,02,25,8.10
2011,09,20,02,26,8.10
2011,09,20,02,27,8.00
2011,09,20,02,28,8.00
2011,09,20,02,29,8.00
2011,09,20,02,30,8.00
2011,09,20,02,31,8.00
2011,09,20,02,32,8.00
2011,09,20,02,33,8.00
2011,09,20,02,34,8.00
2011,09,20,02,35,8.00
2011,09,20,02,36,7.90
2011,09,20,02,37,7.90
2011,09,20,02,38,7.90
2011,09,20,02,39,7.90
2011,09,20,02,40,7.90
2011,09,20,02,41,7.90
2011,09,20,02,42,7.90
2011,09,20,02,43,7.90
2011,09,20,02,44,7.90
2011,09,20,02,45,7.90
2011,09,20,02,46,7.90
2011,09,20,02,47,7.80
2011,09,20,02,48,7.80
2011,09,20,02,49,7.80
2011,09,20,02,50,7.80
2011,09,20,02,51,7.80
2011,09,20,02,52,7.80
2011,09,20,02,53,7.80
2011,09,20,02,54,7.70
2011,09,20,02,55,7.70
2011,09,20,02,56,7.70
2011,09,20,02,57,7.70
2011,09,20,02,58,7.70
2011,09,20,02,59,7.70
2011,09,20,03,00,7.70
2011,09,20,03,01,7.70
2011,09,20,03,02,7.70
2011,09,20,03,03,7.70
2011,09,20,03,04,7.70
2011,09,20,03,05,7.70
2011,09,20,03,06,7.70
2011,09,20,03,07,7.70
2011,09,20,03,08,7.70
2011,09,20,03,09,7.70
2011,09,20,03,10,7.70
2011,09,20,03,11,7.70
2011,09,20,03,12,7.70
2011,09,20,03,13,7.70
2011,09,20,03,14,7.70
2011,09,20,03,15,7.60
2011,09,20,03,16,7.60
2011,09,20,03,17,7.60
2011,09,20,03,18,7.60
2011,09,20,03,19,7.60
2011,09,20,03,20,7.60
2011,09,20,03,21,7.60
2011,09,20,03,22,7.60
2011,09,20,03,23,7.60
2011,09,20,03,24,7.60
2011,09,20,03,25,7.60
2011,09,20,03,26,7.60
2011,09,20,03,27,7.60
2011,09,20,03,28,7.60
2011,09,20,03,29,7.60
2011,09,20,03,30,7.50
2011,09,20,03,31,7.50
2011,09,20,03,32,7.50
2011,09,20,03,33,7.50
2011,09,20,03,34,7.50
2011,09,20,03,35,7.40
2011,09,20,03,36,7.40
2011,09,20,03,37,7.40
2011,09,20,03,38,7.40
2011,09,20,03,39,7.40
2011,09,20,03,40,7.40
2011,09,20,03,41,7.40
2011,09,20,03,42,7.40
2011,09,20,03,43,7.40
2011,09,20,03,44,7.40
2011,09,20,03,45,7.30
2011,09,20,03,46,7.30
2011,09,20,03,47,7.30
2011,09,20,03,48,7.20
2011,09,20,03,49,7.20
2011,09,20,03,50,7.20
2011,09,20,03,51,7.20
2011,09,20,03,52,7.20
2011,09,20,03,53,7.20
2011,09,20,03,54,7.20
2011,09,20,03,55,7.20
2011,09,20,03,56,7.20
2011,09,20,03,57,7.20
2011,09,20,03,58,7.20
2011,09,20,03,59,7.20
2011,09,20,04,00,7.30
2011,09,20,04,01,7.30
2011,09,20,04,02,7.30
2011,09,20,04,03,7.30
2011,09,20,04,04,7.30
2011,09,20,04,05,7.30
2011,09,20,04,06,7.30
2011,09,20,04,07,7.30
2011,09,20,04,08,7.20
2011,09,20,04,09,7.20
2011,09,20,04,10,7.20
2011,09,20,04,11,7.20
2011,09,20,04,12,7.10
2011,09,20,04,13,7.10
2011,09,20,04,14,7.10
2011,09,20,04,15,7.10
2011,09,20,04,16,7.10
2011,09,20,04,17,7.10
2011,09,20,04,18,7.10
2011,09,20,04,19,7.10
2011,09,20,04,20,7.10
2011,09,20,04,21,7.10
2011,09,20,04,22,7.10
2011,09,20,04,23,7.10
2011,09,20,04,24,7.00
2011,09,20,04,25,7.00
2011,09,20,04,26,7.00
2011,09,20,04,27,7.00
2011,09,20,04,28,7.00
2011,09,20,04,29,6.90
2011,09,20,04,30,6.90
2011,09,20,04,31,6.90
2011,09,20,04,32,6.90
2011,09,20,04,33,6.90
2011,09,20,04,34,6.90
2011,09,20,04,35,6.90
2011,09,20,04,36,6.90
2011,09,20,04,37,6.80
2011,09,20,04,38,6.80
2011,09,20,04,39,6.80
2011,09,20,04,40,6.80
2011,09,20,04,41,6.80
2011,09,20,04,42,6.80
2011,09,20,04,43,6.80
2011,09,20,04,44,6.80
2011,09,20,04,45,6.80
2011,09,20,04,46,6.80
2011,09,20,04,47,6.80
2011,09,20,04,48,6.80
2011,09,20,04,49,6.80
2011,09,20,04,50,6.80
2011,09,20,04,51,6.80
2011,09,20,04,52,6.80
2011,09,20,04,53,6.80
2011,09,20,04,54,6.80
2011,09,20,04,55,6.80
2011,09,20,04,56,6.80
2011,09,20,04,57,6.80
2011,09,20,04,58,6.80
2011,09,20,04,59,6.80
2011,09,20,05,00,6.80
2011,09,20,05,01,6.80
2011,09,20,05,02,6.70
2011,09,20,05,03,6.70
2011,09,20,05,04,6.70
2011,09,20,05,05,6.70
2011,09,20,05,06,6.70
2011,09,20,05,07,6.70
2011,09,20,05,08,6.70
2011,09,20,05,09,6.70
2011,09,20,05,10,6.70
2011,09,20,05,11,6.80
2011,09,20,05,12,6.80
2011,09,20,05,13,6.80
2011,09,20,05,14,6.80
2011,09,20,05,15,6.80
2011,09,20,05,16,6.90
2011,09,20,05,17,6.90
2011,09,20,05,18,6.90
2011,09,20,05,19,6.90
2011,09,20,05,20,6.90
2011,09,20,05,21,6.90
2011,09,20,05,22,6.90
2011,09,20,05,23,7.00
2011,09,20,05,24,7.00
2011,09,20,05,25,7.00
2011,09,20,05,26,7.00
2011,09,20,05,27,7.10
2011,09,20,05,28,7.10
2011,09,20,05,29,7.10
2011,09,20,05,30,7.10
2011,09,20,05,31,7.10
2011,09,20,05,32,7.10
2011,09,20,05,33,7.10
2011,09,20,05,34,7.20
2011,09,20,05,35,7.20
2011,09,20,05,36,7.20
2011,09,20,05,37,7.10
2011,09,20,05,38,7.10
2011,09,20,05,39,7.10
2011,09,20,05,40,7.10
2011,09,20,05,41,7.10
2011,09,20,05,42,7.10
2011,09,20,05,43,7.10
2011,09,20,05,44,7.10
2011,09,20,05,45,7.00
2011,09,20,05,46,7.00
2011,09,20,05,47,7.00
2011,09,20,05,48,7.00
2011,09,20,05,49,6.90
2011,09,20,05,50,6.90
2011,09,20,05,51,6.90
2011,09,20,05,52,6.90
2011,09,20,05,53,6.90
2011,09,20,05,54,6.90
2011,09,20,05,55,6.90
2011,09,20,05,56,6.90
2011,09,20,05,57,6.90
2011,09,20,05,58,6.90
2011,09,20,05,59,6.90
2011,09,20,06,00,6.90
2011,09,20,06,01,6.90
2011,09,20,06,02,6.90
2011,09,20,06,03,6.90
2011,09,20,06,04,6.90
2011,09,20,06,05,6.90
2011,09,20,06,06,6.90
2011,09,20,06,07,6.80
2011,09,20,06,08,6.80
2011,09,20,06,09,6.80
2011,09,20,06,10,6.90
2011,09,20,06,11,6.90
2011,09,20,06,12,6.90
2011,09,20,06,13,6.90
2011,09,20,06,14,6.90
2011,09,20,06,15,6.90
2011,09,20,06,16,6.90
2011,09,20,06,17,6.90
2011,09,20,06,18,7.00
2011,09,20,06,19,7.00
2011,09,20,06,20,7.00
2011,09,20,06,21,7.00
2011,09,20,06,22,7.00
2011,09,20,06,23,7.00
2011,09,20,06,24,7.00
2011,09,20,06,25,7.00
2011,09,20,06,26,7.10
2011,09,20,06,27,7.10
2011,09,20,06,28,7.10
2011,09,20,06,29,7.10
2011,09,20,06,30,7.10
2011,09,20,06,31,7.10
2011,09,20,06,32,7.10
2011,09,20,06,33,7.10
2011,09,20,06,34,7.10
2011,09,20,06,35,7.20
2011,09,20,06,36,7.20
2011,09,20,06,37,7.20
2011,09,20,06,38,7.20
2011,09,20,06,39,7.20
2011,09,20,06,40,7.20
2011,09,20,06,41,7.20
2011,09,20,06,42,7.20
2011,09,20,06,43,7.20
2011,09,20,06,44,7.30
2011,09,20,06,45,7.30
2011,09,20,06,46,7.30
2011,09,20,06,47,7.30
2011,09,20,06,48,7.30
2011,09,20,06,49,7.30
2011,09,20,06,50,7.40
2011,09,20,06,51,7.40
2011,09,20,06,52,7.40
2011,09,20,06,53,7.40
2011,09,20,06,54,7.50
2011,09,20,06,55,7.50
2011,09,20,06,56,7.50
2011,09,20,06,57,7.50
2011,09,20,06,58,7.50
2011,09,20,06,59,7.50
2011,09,20,07,00,7.40
2011,09,20,07,01,7.40
2011,09,20,07,02,7.40
2011,09,20,07,03,7.40
2011,09,20,07,04,7.30
2011,09,20,07,05,7.30
2011,09,20,07,06,7.30
2011,09,20,07,07,7.30
2011,09,20,07,08,7.30
2011,09,20,07,09,7.30
2011,09,20,07,10,7.30
2011,09,20,07,11,7.30
2011,09,20,07,12,7.30
2011,09,20,07,13,7.20
2011,09,20,07,14,7.20
2011,09,20,07,15,7.20
2011,09,20,07,16,7.20
2011,09,20,07,17,7.20
2011,09,20,07,18,7.20
2011,09,20,07,19,7.20
2011,09,20,07,20,7.20
2011,09,20,07,21,7.20
2011,09,20,07,22,7.20
2011,09,20,07,23,7.20
2011,09,20,07,24,7.20
2011,09,20,07,25,7.20
2011,09,20,07,26,7.20
2011,09,20,07,27,7.20
2011,09,20,07,28,7.20
2011,09,20,07,29,7.20
2011,09,20,07,30,7.20
2011,09,20,07,31,7.20
2011,09,20,07,32,7.20
2011,09,20,07,33,7.20
2011,09,20,07,34,7.20
2011,09,20,07,35,7.20
2011,09,20,07,36,7.20
2011,09,20,07,37,7.20
2011,09,20,07,38,7.20
2011,09,20,07,39,7.20
2011,09,20,07,40,7.20
2011,09,20,07,41,7.20
2011,09,20,07,42,7.20
2011,09,20,07,43,7.20
2011,09,20,07,44,7.20
2011,09,20,07,45,7.20
2011,09,20,07,46,7.20
2011,09,20,07,47,7.20
2011,09,20,07,48,7.20
2011,09,20,07,49,7.20
2011,09,20,07,50,7.30
2011,09,20,07,51,7.30
2011,09,20,07,52,7.30
2011,09,20,07,53,7.30
2011,09,20,07,54,7.30
2011,09,20,07,55,7.30
2011,09,20,07,56,7.30
2011,09,20,07,57,7.30
2011,09,20,07,58,7.30
2011,09,20,07,59,7.30
2011,09,20,08,00,7.30
2011,09,20,08,01,7.30
2011,09,20,08,02,7.30
2011,09,20,08,03,7.30
2011,09,20,08,04,7.30
2011,09,20,08,05,7.40
2011,09,20,08,06,7.40
2011,09,20,08,07,7.40
2011,09,20,08,08,7.40
2011,09,20,08,09,7.50
2011,09,20,08,10,7.50
2011,09,20,08,11,7.60
2011,09,20,08,12,7.60
2011,09,20,08,13,7.70
2011,09,20,08,14,7.70
2011,09,20,08,15,7.70
2011,09,20,08,16,7.80
2011,09,20,08,17,7.80
2011,09,20,08,18,7.80
2011,09,20,08,19,7.90
2011,09,20,08,20,7.90
2011,09,20,08,21,7.90
2011,09,20,08,22,8.00
2011,09,20,08,23,8.00
2011,09,20,08,24,8.10
2011,09,20,08,25,8.10
2011,09,20,08,26,8.10
2011,09,20,08,27,8.20
2011,09,20,08,28,8.20
2011,09,20,08,29,8.20
2011,09,20,08,30,8.30
2011,09,20,08,31,8.30
2011,09,20,08,32,8.30
2011,09,20,08,33,8.30
2011,09,20,08,34,8.30
2011,09,20,08,35,8.40
2011,09,20,08,36,8.40
2011,09,20,08,37,8.40
2011,09,20,08,38,8.40
2011,09,20,08,39,8.40
2011,09,20,08,40,8.40
2011,09,20,08,41,8.40
2011,09,20,08,42,8.40
2011,09,20,08,43,8.40
2011,09,20,08,44,8.40
2011,09,20,08,45,8.40
2011,09,20,08,46,8.40
2011,09,20,08,47,8.40
2011,09,20,08,48,8.40
2011,09,20,08,49,8.40
2011,09,20,08,50,8.40
2011,09,20,08,51,8.40
2011,09,20,08,52,8.40
2011,09,20,08,53,8.50
2011,09,20,08,54,8.50
2011,09,20,08,55,8.50
2011,09,20,08,56,8.60
2011,09,20,08,57,8.60
2011,09,20,08,58,8.60
2011,09,20,08,59,8.60
2011,09,20,09,00,8.60
2011,09,20,09,01,8.60
2011,09,20,09,02,8.60
2011,09,20,09,03,8.60
2011,09,20,09,04,8.60
2011,09,20,09,05,8.60
2011,09,20,09,06,8.70
2011,09,20,09,07,8.70
2011,09,20,09,08,8.70
2011,09,20,09,09,8.70
2011,09,20,09,10,8.70
2011,09,20,09,11,8.70
2011,09,20,09,12,8.70
2011,09,20,09,13,8.70
2011,09,20,09,14,8.70
2011,09,20,09,15,8.70
2011,09,20,09,16,8.70
2011,09,20,09,17,8.80
2011,09,20,09,18,8.80
2011,09,20,09,19,8.80
2011,09,20,09,20,8.80
2011,09,20,09,21,8.80
2011,09,20,09,22,8.80
2011,09,20,09,23,8.90
2011,09,20,09,24,9.00
2011,09,20,09,25,9.00
2011,09,20,09,26,9.10
2011,09,20,09,27,9.20
2011,09,20,09,28,9.20
2011,09,20,09,29,9.30
2011,09,20,09,30,9.30
2011,09,20,09,31,9.40
2011,09,20,09,32,9.40
2011,09,20,09,33,9.50
2011,09,20,09,34,9.60
2011,09,20,09,35,9.60
2011,09,20,09,36,9.70
2011,09,20,09,37,9.70
2011,09,20,09,38,9.80
2011,09,20,09,39,9.80
2011,09,20,09,40,9.90
2011,09,20,09,41,9.90
2011,09,20,09,42,10.00
2011,09,20,09,43,10.00
2011,09,20,09,44,10.00
2011,09,20,09,45,10.00
2011,09,20,09,46,10.00
2011,09,20,09,47,10.10
2011,09,20,09,48,10.10
2011,09,20,09,49,10.20
2011,09,20,09,50,10.30
2011,09,20,09,51,10.30
2011,09,20,09,52,10.40
2011,09,20,09,53,10.50
2011,09,20,09,54,10.60
2011,09,20,09,55,10.70
2011,09,20,09,56,10.70
2011,09,20,09,57,10.80
2011,09,20,09,58,10.80
2011,09,20,09,59,10.80
2011,09,20,10,00,10.80
2011,09,20,10,01,10.80
2011,09,20,10,02,10.80
2011,09,20,10,03,10.80
2011,09,20,10,04,10.80
2011,09,20,10,05,10.80
2011,09,20,10,06,10.80
2011,09,20,10,07,10.90
2011,09,20,10,08,10.90
2011,09,20,10,09,11.00
2011,09,20,10,10,11.00
2011,09,20,10,11,11.10
2011,09,20,10,12,11.10
2011,09,20,10,13,11.10
2011,09,20,10,14,11.10
2011,09,20,10,15,11.20
2011,09,20,10,16,11.20
2011,09,20,10,17,11.20
2011,09,20,10,18,11.30
2011,09,20,10,19,11.40
2011,09,20,10,20,11.40
2011,09,20,10,21,11.50
2011,09,20,10,22,11.50
2011,09,20,10,23,11.60
2011,09,20,10,24,11.60
2011,09,20,10,25,11.70
2011,09,20,10,26,11.70
2011,09,20,10,27,11.80
2011,09,20,10,28,11.80
2011,09,20,10,29,11.80
2011,09,20,10,30,11.90
2011,09,20,10,31,11.90
2011,09,20,10,32,11.90
2011,09,20,10,33,12.00
2011,09,20,10,34,12.00
2011,09,20,10,35,12.00
2011,09,20,10,36,12.00
2011,09,20,10,37,12.00
2011,09,20,10,38,12.10
2011,09,20,10,39,12.10
2011,09,20,10,40,12.10
2011,09,20,10,41,12.20
2011,09,20,10,42,12.20
2011,09,20,10,43,12.20
2011,09,20,10,44,12.30
2011,09,20,10,45,12.40
2011,09,20,10,46,12.40
2011,09,20,10,47,12.40
2011,09,20,10,48,12.50
2011,09,20,10,49,12.50
2011,09,20,10,50,12.50
2011,09,20,10,51,12.50
2011,09,20,10,52,12.60
2011,09,20,10,53,12.60
2011,09,20,10,54,12.60
2011,09,20,10,55,12.60
2011,09,20,10,56,12.70
2011,09,20,10,57,12.70
2011,09,20,10,58,12.70
2011,09,20,10,59,12.80
2011,09,20,11,00,12.80
2011,09,20,11,01,12.90
2011,09,20,11,02,13.00
2011,09,20,11,03,13.00
2011,09,20,11,04,13.10
2011,09,20,11,05,13.20
2011,09,20,11,06,13.20
2011,09,20,11,07,13.20
2011,09,20,11,08,13.20
2011,09,20,11,09,13.30
2011,09,20,11,10,13.30
2011,09,20,11,11,13.30
2011,09,20,11,12,13.40
2011,09,20,11,13,13.40
2011,09,20,11,14,13.50
2011,09,20,11,15,13.60
2011,09,20,11,16,13.60
2011,09,20,11,17,13.60
2011,09,20,11,18,13.70
2011,09,20,11,19,13.70
2011,09,20,11,20,13.70
2011,09,20,11,21,13.70
2011,09,20,11,22,13.70
2011,09,20,11,23,13.70
2011,09,20,11,24,13.80
2011,09,20,11,25,13.90
2011,09,20,11,26,13.90
2011,09,20,11,27,14.00
2011,09,20,11,28,14.00
2011,09,20,11,29,14.10
2011,09,20,11,30,14.20
2011,09,20,11,31,14.30
2011,09,20,11,32,14.30
2011,09,20,11,33,14.40
2011,09,20,11,34,14.50
2011,09,20,11,35,14.60
2011,09,20,11,36,14.60
2011,09,20,11,37,14.60
2011,09,20,11,38,14.60
2011,09,20,11,39,14.60
2011,09,20,11,40,14.80
2011,09,20,11,41,14.90
2011,09,20,11,42,15.00
2011,09,20,11,43,15.00
2011,09,20,11,44,15.00
2011,09,20,11,45,15.10
2011,09,20,11,46,15.20
2011,09,20,11,47,15.30
2011,09,20,11,48,15.40
2011,09,20,11,49,15.40
2011,09,20,11,50,15.40
2011,09,20,11,51,15.50
2011,09,20,11,52,15.50
2011,09,20,11,53,15.60
2011,09,20,11,54,15.70
2011,09,20,11,55,15.70
2011,09,20,11,56,15.80
2011,09,20,11,57,15.90
2011,09,20,11,58,16.00
2011,09,20,11,59,16.10
2011,09,20,12,00,16.20
2011,09,20,12,01,16.20
2011,09,20,12,02,16.30
2011,09,20,12,03,16.40
2011,09,20,12,04,16.40
2011,09,20,12,05,16.50
2011,09,20,12,06,16.50
2011,09,20,12,07,16.50
2011,09,20,12,08,16.60
2011,09,20,12,09,16.60
2011,09,20,12,10,16.70
2011,09,20,12,11,16.70
2011,09,20,12,12,16.70
2011,09,20,12,13,16.80
2011,09,20,12,14,16.80
2011,09,20,12,15,16.90
2011,09,20,12,16,16.90
2011,09,20,12,17,17.00
2011,09,20,12,18,17.00
2011,09,20,12,19,17.10
2011,09,20,12,20,17.10
2011,09,20,12,21,17.10
2011,09,20,12,22,17.20
2011,09,20,12,23,17.30
2011,09,20,12,24,17.30
2011,09,20,12,25,17.40
2011,09,20,12,26,17.50
2011,09,20,12,27,17.50
2011,09,20,12,28,17.60
2011,09,20,12,29,17.70
2011,09,20,12,30,17.80
2011,09,20,12,31,17.90
2011,09,20,12,32,17.90
2011,09,20,12,33,18.00
2011,09,20,12,34,18.10
2011,09,20,12,35,18.10
2011,09,20,12,36,18.10
2011,09,20,12,37,18.20
2011,09,20,12,38,18.20
2011,09,20,12,39,18.30
2011,09,20,12,40,18.30
2011,09,20,12,41,18.30
2011,09,20,12,42,18.30
2011,09,20,12,43,18.40
2011,09,20,12,44,18.40
2011,09,20,12,45,18.40
2011,09,20,12,46,18.40
2011,09,20,12,47,18.50
2011,09,20,12,48,18.50
2011,09,20,12,49,18.50
2011,09,20,12,50,18.60
2011,09,20,12,51,18.60
2011,09,20,12,52,18.70
2011,09,20,12,53,18.70
2011,09,20,12,54,18.80
2011,09,20,12,55,18.80
2011,09,20,12,56,18.90
2011,09,20,12,57,19.00
2011,09,20,12,58,19.00
2011,09,20,12,59,19.10
2011,09,20,13,00,19.20
2011,09,20,13,01,19.20
2011,09,20,13,02,19.20
2011,09,20,13,03,19.30
2011,09,20,13,04,19.30
2011,09,20,13,05,19.30
2011,09,20,13,06,19.40
2011,09,20,13,07,19.40
2011,09,20,13,08,19.40
2011,09,20,13,09,19.40
2011,09,20,13,10,19.50
2011,09,20,13,11,19.50
2011,09,20,13,12,19.60
2011,09,20,13,13,19.70
2011,09,20,13,14,19.70
2011,09,20,13,15,19.80
2011,09,20,13,16,19.80
2011,09,20,13,17,19.90
2011,09,20,13,18,19.90
2011,09,20,13,19,20.00
2011,09,20,13,20,20.10
2011,09,20,13,21,20.20
2011,09,20,13,22,20.30
2011,09,20,13,23,20.40
2011,09,20,13,24,20.50
2011,09,20,13,25,20.60
2011,09,20,13,26,20.60
2011,09,20,13,27,20.60
2011,09,20,13,28,20.70
2011,09,20,13,29,20.70
2011,09,20,13,30,20.80
2011,09,20,13,31,20.80
2011,09,20,13,32,20.80
2011,09,20,13,33,20.90
2011,09,20,13,34,20.90
2011,09,20,13,35,20.90
2011,09,20,13,36,20.90
2011,09,20,13,37,20.90
2011,09,20,13,38,20.90
2011,09,20,13,39,20.90
2011,09,20,13,40,21.00
2011,09,20,13,41,21.00
2011,09,20,13,42,20.90
2011,09,20,13,43,20.90
2011,09,20,13,44,20.90
2011,09,20,13,45,20.90
2011,09,20,13,46,20.90
2011,09,20,13,47,21.00
2011,09,20,13,48,21.10
2011,09,20,13,49,21.20
2011,09,20,13,50,21.20
2011,09,20,13,51,21.30
2011,09,20,13,52,21.40
2011,09,20,13,53,21.40
2011,09,20,13,54,21.50
2011,09,20,13,55,21.60
2011,09,20,13,56,21.60
2011,09,20,13,57,21.60
2011,09,20,13,58,21.60
2011,09,20,13,59,21.70
2011,09,20,14,00,21.70
2011,09,20,14,01,21.80
2011,09,20,14,02,21.80
2011,09,20,14,03,21.80
2011,09,20,14,04,21.80
2011,09,20,14,05,21.70
2011,09,20,14,06,21.70
2011,09,20,14,07,21.70
2011,09,20,14,08,21.70
2011,09,20,14,09,21.70
2011,09,20,14,10,21.70
2011,09,20,14,11,21.70
2011,09,20,14,12,21.70
2011,09,20,14,13,21.80
2011,09,20,14,14,21.80
2011,09,20,14,15,21.80
2011,09,20,14,16,21.80
2011,09,20,14,17,21.90
2011,09,20,14,18,21.90
2011,09,20,14,19,22.00
2011,09,20,14,20,22.00
2011,09,20,14,21,22.10
2011,09,20,14,22,22.10
2011,09,20,14,23,22.00
2011,09,20,14,24,22.00
2011,09,20,14,25,22.00
2011,09,20,14,26,22.00
2011,09,20,14,27,22.00
2011,09,20,14,28,22.10
2011,09,20,14,29,22.10
2011,09,20,14,30,22.10
2011,09,20,14,31,22.10
2011,09,20,14,32,22.10
2011,09,20,14,33,22.10
2011,09,20,14,34,22.10
2011,09,20,14,35,22.10
2011,09,20,14,36,22.10
2011,09,20,14,37,22.20
2011,09,20,14,38,22.20
2011,09,20,14,39,22.20
2011,09,20,14,40,22.20
2011,09,20,14,41,22.20
2011,09,20,14,42,22.20
2011,09,20,14,43,22.10
2011,09,20,14,44,22.20
2011,09,20,14,45,22.20
2011,09,20,14,46,22.20
2011,09,20,14,47,22.30
2011,09,20,14,48,22.40
2011,09,20,14,49,22.50
2011,09,20,14,50,22.50
2011,09,20,14,51,22.60
2011,09,20,14,52,22.60
2011,09,20,14,53,22.60
2011,09,20,14,54,22.60
2011,09,20,14,55,22.60
2011,09,20,14,56,22.60
2011,09,20,14,57,22.60
2011,09,20,14,58,22.70
2011,09,20,14,59,22.70
2011,09,20,15,00,22.80
2011,09,20,15,01,22.80
2011,09,20,15,02,22.90
2011,09,20,15,03,22.90
2011,09,20,15,04,23.00
2011,09,20,15,05,23.10
2011,09,20,15,06,23.20
2011,09,20,15,07,23.30
2011,09,20,15,08,23.40
2011,09,20,15,09,23.40
2011,09,20,15,10,23.40
2011,09,20,15,11,23.40
2011,09,20,15,12,23.30
2011,09,20,15,13,23.30
2011,09,20,15,14,23.20
2011,09,20,15,15,23.20
2011,09,20,15,16,23.20
2011,09,20,15,17,23.20
2011,09,20,15,18,23.20
2011,09,20,15,19,23.20
2011,09,20,15,20,23.20
2011,09,20,15,21,23.20
2011,09,20,15,22,23.20
2011,09,20,15,23,23.20
2011,09,20,15,24,23.20
2011,09,20,15,25,23.20
2011,09,20,15,26,23.30
2011,09,20,15,27,23.30
2011,09,20,15,28,23.30
2011,09,20,15,29,23.30
2011,09,20,15,30,23.30
2011,09,20,15,31,23.30
2011,09,20,15,32,23.30
2011,09,20,15,33,23.10
2011,09,20,15,34,22.90
2011,09,20,15,35,22.60
2011,09,20,15,36,22.40
2011,09,20,15,37,22.20
2011,09,20,15,38,22.20
2011,09,20,15,39,22.10
2011,09,20,15,40,22.00
2011,09,20,15,41,21.90
2011,09,20,15,42,21.90
2011,09,20,15,43,21.90
2011,09,20,15,44,21.90
2011,09,20,15,45,21.90
2011,09,20,15,46,21.90
2011,09,20,15,47,22.00
2011,09,20,15,48,22.00
2011,09,20,15,49,22.10
2011,09,20,15,50,22.10
2011,09,20,15,51,22.20
2011,09,20,15,52,22.20
2011,09,20,15,53,22.20
2011,09,20,15,54,22.20
2011,09,20,15,55,22.20
2011,09,20,15,56,22.20
2011,09,20,15,57,22.30
2011,09,20,15,58,22.30
2011,09,20,15,59,22.30
2011,09,20,16,00,22.40
2011,09,20,16,01,22.40
2011,09,20,16,02,22.40
2011,09,20,16,03,22.40
2011,09,20,16,04,22.50
2011,09,20,16,05,22.50
2011,09,20,16,06,22.60
2011,09,20,16,07,22.60
2011,09,20,16,08,22.60
2011,09,20,16,09,22.70
2011,09,20,16,10,22.70
2011,09,20,16,11,22.70
2011,09,20,16,12,22.70
2011,09,20,16,13,22.70
2011,09,20,16,14,22.70
2011,09,20,16,15,22.70
2011,09,20,16,16,22.70
2011,09,20,16,17,22.70
2011,09,20,16,18,22.80
2011,09,20,16,19,22.80
2011,09,20,16,20,22.80
2011,09,20,16,21,22.80
2011,09,20,16,22,22.80
2011,09,20,16,23,22.90
2011,09,20,16,24,22.90
2011,09,20,16,25,22.90
2011,09,20,16,26,23.00
2011,09,20,16,27,23.00
2011,09,20,16,28,23.00
2011,09,20,16,29,22.90
2011,09,20,16,30,22.90
2011,09,20,16,31,22.90
2011,09,20,16,32,22.80
2011,09,20,16,33,22.80
2011,09,20,16,34,22.80
2011,09,20,16,35,22.80
2011,09,20,16,36,22.80
2011,09,20,16,37,22.80
2011,09,20,16,38,22.80
2011,09,20,16,39,22.80
2011,09,20,16,40,22.80
2011,09,20,16,41,22.80
2011,09,20,16,42,22.80
2011,09,20,16,43,22.80
2011,09,20,16,44,22.80
2011,09,20,16,45,22.80
2011,09,20,16,46,22.70
2011,09,20,16,47,22.70
2011,09,20,16,48,22.70
2011,09,20,16,49,22.70
2011,09,20,16,50,22.60
2011,09,20,16,51,22.60
2011,09,20,16,52,22.50
2011,09,20,16,53,22.50
2011,09,20,16,54,22.40
2011,09,20,16,55,22.40
2011,09,20,16,56,22.40
2011,09,20,16,57,22.40
2011,09,20,16,58,22.40
2011,09,20,16,59,22.40
2011,09,20,17,00,22.40
2011,09,20,17,01,22.40
2011,09,20,17,02,22.40
2011,09,20,17,03,22.40
2011,09,20,17,04,22.40
2011,09,20,17,05,22.40
2011,09,20,17,06,22.40
2011,09,20,17,07,22.40
2011,09,20,17,08,22.40
2011,09,20,17,09,22.40
2011,09,20,17,10,22.40
2011,09,20,17,11,22.40
2011,09,20,17,12,22.50
2011,09,20,17,13,22.50
2011,09,20,17,14,22.60
2011,09,20,17,15,22.60
2011,09,20,17,16,22.60
2011,09,20,17,17,22.70
2011,09,20,17,18,22.70
2011,09,20,17,19,22.70
2011,09,20,17,20,22.80
2011,09,20,17,21,22.80
2011,09,20,17,22,22.80
2011,09,20,17,23,22.80
2011,09,20,17,24,22.80
2011,09,20,17,25,22.80
2011,09,20,17,26,22.70
2011,09,20,17,27,22.70
2011,09,20,17,28,22.60
2011,09,20,17,29,22.60
2011,09,20,17,30,22.50
2011,09,20,17,31,22.50
2011,09,20,17,32,22.40
2011,09,20,17,33,22.40
2011,09,20,17,34,22.40
2011,09,20,17,35,22.40
2011,09,20,17,36,22.40
2011,09,20,17,37,22.40
2011,09,20,17,38,22.40
2011,09,20,17,39,22.30
2011,09,20,17,40,22.30
2011,09,20,17,41,22.20
2011,09,20,17,42,22.20
2011,09,20,17,43,22.10
2011,09,20,17,44,22.10